Location: Leeds
(37.2390°N, 113.3580°W)
Time: 16:03:47
(UTC-06:00)

ISS - All Passes

Search period start: 27 May 2016 00:00
Search period end: 06 June 2016 00:00
Orbit: 402 x 404 km, 51.6° (Epoch: 27 May)

Date Brightness Start Highest point End Pass type
(mag) Time Alt. Az. Time Alt. Az. Time Alt. Az.
27 May - 00:14:27 10° NW 00:16:05 13° NNW 00:17:42 10° N visible
27 May - 03:30:29 10° N 03:31:33 11° NNE 03:32:37 10° NE visible
27 May - 05:05:25 10° NW 05:08:37 52° NE 05:11:47 10° ESE visible
27 May - 06:43:06 10° W 06:44:42 13° SW 06:46:19 10° SSW daylight
27 May - 21:43:16 10° SSW 21:46:27 51° SE 21:49:38 10° ENE visible
27 May - 23:20:39 10° WNW 23:23:05 19° NNW 23:25:31 10° NNE visible
28 May - 04:12:53 10° NNW 04:15:46 28° NNE 04:18:38 10° E visible
28 May - 05:49:22 10° WNW 05:52:09 26° SW 05:54:56 10° SSE daylight
28 May - 20:51:08 10° S 20:53:49 24° SE 20:56:30 10° ENE daylight
28 May - 22:27:13 10° W 22:30:09 30° NNW 22:33:07 10° NNE visible
29 May - 03:20:30 10° NNW 03:22:50 18° NNE 03:25:09 10° ENE visible
29 May - 04:56:19 10° WNW 04:59:31 57° SW 05:02:42 10° SE visible
29 May - 20:00:01 10° SSE 20:01:15 12° SE 20:02:30 10° ESE daylight
29 May - 21:34:06 10° WSW 21:37:19 58° NW 21:40:34 10° NE visible
29 May - 23:13:03 10° NW 23:14:20 12° NNW 23:15:37 10° N visible
30 May - 02:28:21 10° N 02:29:49 12° NNE 02:31:16 10° NE visible
30 May - 04:03:32 10° NW 04:06:47 65° NE 04:10:01 10° ESE visible
30 May - 05:42:10 10° WSW 05:42:48 10° SW 05:43:25 10° SW visible
30 May - 20:41:21 10° SW 20:44:34 65° SE 20:47:49 10° NE daylight
30 May - 22:19:05 10° WNW 22:21:18 17° NNW 22:23:31 10° NNE visible
31 May - 03:10:57 10° NNW 03:13:58 33° NE 03:16:57 10° E visible
31 May - 04:47:42 10° W 04:50:15 21° SW 04:52:48 10° S night (unlit)
31 May - 19:49:02 10° SSW 19:51:55 29° SE 19:54:49 10° ENE daylight
31 May - 21:25:32 10° W 21:28:21 26° NNW 21:31:11 10° NNE visible
01 Jun - 02:18:31 10° NNW 02:21:03 20° NNE 02:23:33 10° E visible
01 Jun - 03:54:30 10° WNW 03:57:38 45° SW 04:00:45 10° SSE night (unlit)
01 Jun - 18:57:27 10° SSE 18:59:20 15° SE 19:01:14 10° E daylight
01 Jun - 20:32:19 10° WSW 20:35:28 47° NW 20:38:39 10° NE daylight
01 Jun - 22:11:44 10° NNW 22:12:34 11° NNW 22:13:24 10° N visible
02 Jun - 01:26:17 10° N 01:28:02 14° NNE 01:29:47 10° NE visible
02 Jun - 03:01:39 10° NW 03:04:55 82° NE 03:08:10 10° SE visible
02 Jun - 19:39:26 10° SW 19:42:42 82° SE 19:45:58 10° NE daylight
02 Jun - 21:17:30 10° WNW 21:19:30 15° NNW 21:21:30 10° NNE visible
03 Jun - 02:09:01 10° NW 02:12:07 39° NE 02:15:12 10° ESE visible
03 Jun - 03:46:04 10° W 03:48:20 17° SW 03:50:34 10° S night (unlit)
03 Jun - 18:46:58 10° SSW 18:50:00 37° SE 18:53:03 10° ENE daylight
03 Jun - 20:23:51 10° W 20:26:31 23° NNW 20:29:12 10° NNE daylight
04 Jun - 01:16:32 10° NNW 01:19:13 23° NNE 01:21:54 10° E visible
04 Jun - 02:52:41 10° WNW 02:55:43 35° SW 02:58:43 10° SSE night (unlit)
04 Jun - 17:55:05 10° S 17:57:23 18° SE 17:59:41 10° E daylight
04 Jun - 19:30:31 10° WSW 19:33:36 39° NW 19:36:43 10° NE daylight
05 Jun - 00:24:12 10° NNW 00:26:14 15° NNE 00:28:14 10° ENE visible
05 Jun - 01:59:45 10° NW 02:03:01 80° SW 02:06:16 10° SE visible
05 Jun - 18:37:32 10° SW 18:40:47 79° NW 18:44:03 10° NE daylight
05 Jun - 20:15:57 10° NW 20:17:41 14° NNW 20:19:25 10° N daylight
05 Jun - 23:32:16 10° N 23:33:09 11° NNE 23:34:02 10° NE visible
